Weather in Shapsha

Russia / Khanty-Mansi Autonomous Okrug — Yugra     61°05′23″N   69°27′38″E
temp.,
°C
wind,
m/s
gust,
m/s
humid.,
%
clouds,
%
prec.,
mm/h
press.,
hPa
HPBL,
m
13 april, tue
tue1323:00+1w514835 0.0 1031388
02:000wnw5138979 0.0 1032393
05:000w51292100 0.0 1033355
08:00+1w5129334 0.0 1033352
11:00+4wsw6139297 0.0 1031563
14:00+6wsw61380100 0.0 10301113
17:00+6w61477100 0.0 1029714
20:00+5wsw51583100 0.0 1027391
14 april, wed
wed1423:00+4wsw51678100 0.0 1025364
02:00+4wsw61681100 0.0 1021420
05:00+4w61586100 0.0 1021509
08:00+4w51396100 1.3 1021436
11:00+4w41098100 1.8 1022372
14:00+7w489591 0.0 1023400
17:00+7wsw3893100 0.0 1022337
20:00+6sw3796100 0.0 1021147
15 april, thu
thu1523:00+7sw4129291 0.1 1019302
02:00+6wsw413905 0.0 1017279
05:00+5sw5129015 0.0 1016270
08:00+8wsw6168454 0.0 1014470
11:00+13wsw716605 0.0 1012725
14:00+15w812510 0.0 10111213
17:00+14wnw61258100 0.0 10111660
20:00+5nnw51188100 0.4 1013696
16 april, fri
fri1623:00+4nw368799 1.2 1014705
02:00+2n3778100 0.3 1015398
05:00+1n5876100 0.3 1017776
08:00−2nne696218 0.0 1020847
11:00−1nne67445 0.0 10231313
14:00−1nne57385 0.0 10251592
17:00−1nne46365 0.0 10261582
20:00−3ene23500 0.0 1026122
17 april, sat
sat1723:00−4sse34480 0.0 1025354
02:00−4s5846100 0.0 1023454
05:00−4ssw61249100 0.0 1020587
08:00−3wsw71371100 0.4 1017980
11:00−2nnw795296 1.4 10161279
14:00−2nnw81046100 0.0 10182134
17:00−4n71051100 0.1 10202211
20:00−6n59509 0.1 10211627